Skip Page Navigation
NASA JPL Caltech
NASA Logo - Jet Propulsion Laboratory + View the NASA Portal
+ Near-Earth Object (NEO) Program
Search JPL
JPL Home Earth Solar System Stars & Galaxies Technology
JPL Solar System Dynamics
BODIES ORBITS EPHEMERIDES TOOLS PHYSICAL DATA DISCOVERY FAQ SITE MAP
JPL Small-Body Database Browser
Search: [ help ]  
35243 (1995 TZ1)
Classification: Main-belt Asteroid          SPK-ID: 2035243
Ephemeris | Orbit Diagram | Orbital Elements | Physical Parameters | Discovery Circumstances | Close-Approach Data ]

[ show orbit diagram ]
Orbital Elements at Epoch 2457000.5 (2014-Dec-09.0) TDB
Reference: JPL 8 (heliocentric ecliptic J2000)
 Element Value Uncertainty (1-sigma)   Units 
e .238586136112497 7.4843e-08  
a 2.630449260034158 4.1282e-08 AU
q 2.002860534842631 1.9755e-07 AU
i 7.631850241038142 9.0341e-06 deg
node 42.66322032850899 5.172e-05 deg
peri 201.3008218496198 5.9393e-05 deg
M 312.0759898125694 4.655e-05 deg
tp 2457207.940700956111
(2015-Jul-04.44070096)
0.00020581 JED
period 1558.272190748064
4.27
3.6683e-05
1.004e-07
d
yr
n .2310251072549645 5.4385e-09 deg/d
Q 3.258037985225684 5.1131e-08 AU
  Orbit Determination Parameters
   # obs. used (total)      636  
   data-arc span      6689 days (18.31 yr)  
   first obs. used      1995-10-14  
   last obs. used      2014-02-05  
   planetary ephem.      DE431  
   SB-pert. ephem.      SB431-BIG16  
   condition code      0  
   fit RMS      .60875  
   data source      ORB  
   producer      Otto Matic  
   solution date      2014-Jun-10 03:51:56  

Additional Information
 Earth MOID = .993918 AU 
 T_jup = 3.347 
[ show covariance matrix ]

Ephemeris | Orbit Diagram | Orbital Elements | Physical Parameters | Discovery Circumstances | Close-Approach Data ]

Physical Parameter Table
Parameter Symbol Value Units Sigma Reference Notes
absolute magnitude H 14.3 mag n/a MPO284420  

35243 (1995 TZ1)          Discovered 1995-Oct-14 by BAO Schmidt CCD Asteroid Program at Xinglong (327)
Reference: 20020227/Numbers.arcLast Updated: 2004-04-19

[ show close-approach data ]
Alternate Designations
 1995 TZ1 = 1998 KR62 
Ephemeris | Orbit Diagram | Orbital Elements | Physical Parameters | Discovery Circumstances | Close-Approach Data ]
ABOUT SSD CREDITS/AWARDS PRIVACY/COPYRIGHT GLOSSARY LINKS
FirstGov 2014-Nov-22 02:52 UT
(server date/time)  
NASA Home Page
Site Manager:   Donald K. Yeomans
Webmaster  Alan B. Chamberlin